Wind_Speed
14 16 16 15 14 13 15 20 17 27 26 27 27 27 27 26 26 24 21 20 18 18 22 25 28 32 36 39 42 46 51 55 59 62 65 66 68 69 67 62 61 61 62 62
13 9 9 11 12 11 16 17 17 22 21 26 26 24 21 19 19 19 16 16 20 24 26 29 33 36 39 44 49 53 57 59 62 64 69 72 73 66 58 58 58 58 57 57
16 13 10 8 8 11 12 12 16 16 17 17 16 17 17 16 14 15 19 21 24 27 31 34 38 42 47 51 55 58 58 62 68 70 73 74 65 56 55 54 54 54 54 54
10 11 12 11 12 12 14 15 16 16 16 15 14 13 13 14 16 18 21 25 29 33 37 40 43 47 50 53 56 60 65 69 70 72 71 64 57 53 51 51 51 50 49 49
8 8 8 8 9 11 12 12 13 13 13 11 10 11 13 15 19 23 27 31 35 38 41 44 47 50 52 56 61 65 67 70 71 68 63 57 54 52 51 52 52 53 53 52
5 6 8 11 13 14 13 12 13 13 10 8 10 14 17 21 25 29 32 35 38 42 44 47 50 53 57 62 65 68 70 70 68 64 59 56 55 54 56 57 56 58 58 60
4 5 6 7 9 10 10 10 10 10 12 14 18 22 24 27 30 33 36 39 42 44 47 51 53 58 62 66 68 68 67 67 64 60 59 59 59 60 60 61 61 62 63 65
8 8 9 8 11 13 12 13 14 16 18 21 24 27 30 32 35 38 40 41 44 48 52 54 58 62 66 68 69 68 65 64 62 62 63 63 62 63 64 65 65 66 69 70
14 15 15 14 14 16 18 20 22 23 25 28 30 32 34 36 38 41 44 47 50 53 56 58 62 65 67 69 68 66 62 62 62 65 66 65 66 66 66 68 71 73 75 76
22 23 23 21 22 24 25 27 29 31 32 33 35 36 38 40 43 46 48 50 53 56 57 61 64 67 69 68 66 64 63 62 65 68 68 68 66 67 71 73 75 80 84 86
29 32 28 28 30 30 31 32 35 37 38 38 39 40 42 44 46 48 51 54 57 58 61 65 68 70 70 67 64 64 65 65 68 71 68 64 68 71 73 79 84 87 90 95
35 36 34 34 34 34 35 38 41 42 42 42 42 44 45 45 48 51 55 58 58 61 65 69 71 70 68 65 64 64 67 70 70 64 64 67 70 71 78 83 88 92 90 90
39 38 37 37 38 38 40 43 43 43 44 44 45 46 46 48 52 56 57 59 62 65 69 70 69 67 65 64 65 68 71 70 63 64 67 69 72 76 79 84 81 77 80 81
42 43 43 44 44 43 42 42 43 44 45 44 44 46 50 52 55 57 59 63 66 69 71 69 66 64 62 64 68 71 68 63 63 66 68 71 75 79 81 75 67 66 70 67
41 42 43 44 45 45 42 42 43 42 42 45 48 50 52 56 58 60 63 66 69 69 67 64 62 62 63 67 71 66 62 63 66 68 70 73 76 75 68 62 61 62 61 57
43 43 43 43 43 41 42 43 42 44 47 50 50 53 57 59 61 64 66 68 67 66 63 61 61 63 65 68 63 62 62 64 66 67 70 73 72 64 57 56 57 56 54 52
42 41 40 40 40 40 40 42 46 48 49 51 55 58 61 62 64 66 66 65 64 62 61 60 62 65 65 57 57 60 62 63 63 66 70 70 61 54 52 53 52 50 48 46
44 43 43 43 41 42 45 48 49 50 52 55 58 60 60 61 63 64 63 61 60 59 62 62 61 58 51 54 58 61 60 61 65 68 68 61 54 47 49 49 48 47 44 42
42 42 43 44 46 48 50 51 52 54 56 58 59 58 59 59 60 60 58 59 60 59 58 59 57 49 53 58 62 63 61 64 66 67 63 54 45 44 48 46 44 43 40 39
44 45 47 49 52 53 55 56 57 56 56 57 57 58 58 58 58 58 57 57 55 55 57 58 54 54 58 62 66 64 64 65 66 63 56 46 39 42 45 43 42 40 38 35
49 51 53 55 55 56 57 57 57 56 56 57 58 58 57 56 56 56 53 52 54 57 59 56 55 57 60 60 64 63 64 64 62 57 46 39 36 41 42 40 39 37 35 30
54 55 55 55 56 57 57 57 56 56 55 56 57 57 56 55 53 49 51 53 55 53 54 53 55 57 61 64 62 61 63 60 56 47 39 33 35 39 39 38 36 35 31 26
54 55 55 54 54 52 51 51 53 55 55 55 54 54 53 50 48 48 52 54 52 51 53 56 60 63 61 58 59 60 57 53 47 39 33 30 35 38 36 35 34 32 26 21
54 53 52 51 49 48 50 51 52 53 53 51 50 49 50 51 53 54 53 54 55 55 56 59 62 53 56 58 58 55 50 47 37 34 27 30 35 35 33 32 31 26 21 14
53 52 51 50 50 50 52 56 58 57 55 53 51 51 53 56 58 59 54 54 56 57 59 55 53 54 57 56 52 50 44 37 34 27 25 30 33 31 29 27 24 21 15 15
52 51 51 52 54 56 59 63 63 59 54 53 54 53 54 56 54 50 51 56 54 50 48 51 53 55 52 50 47 42 37 32 28 22 26 31 29 25 24 23 20 14 13 9
56 56 57 59 62 64 67 64 60 57 53 52 53 54 52 51 51 51 50 46 45 45 49 52 52 50 48 45 39 36 32 28 20 21 28 28 21 19 20 19 17 12 8 3
Wind_Direction
147 156 157 135 145 167 176 187 183 180 179 181 189 193 201 212 224 237 251 265 268 275 280 283 286 291 296 299 301 306 312 313 312 310 309 312 314 313 310 305 301 299 298 298
92 133 141 146 136 160 170 178 177 184 190 191 198 206 214 225 237 248 251 254 262 270 281 286 292 297 300 302 306 311 312 312 311 312 317 315 312 311 305 302 300 299 297 298
112 106 119 126 131 139 169 167 173 174 183 189 197 208 220 232 233 237 248 262 276 286 293 296 298 301 304 306 308 309 311 314 318 317 314 313 314 309 305 303 301 299 300 300
126 135 139 144 142 150 163 172 178 187 194 198 205 210 219 230 243 258 275 287 293 296 298 300 303 306 308 308 311 314 315 317 316 314 314 316 314 310 308 308 307 307 306 304
141 148 157 163 167 167 172 179 184 187 188 193 204 223 240 259 276 285 289 294 297 298 300 304 306 307 309 312 313 314 316 315 315 316 319 318 315 312 311 309 308 307 304 302
137 158 169 169 172 175 182 185 188 195 199 224 254 266 275 282 288 292 295 296 298 300 302 305 307 309 311 313 315 316 314 315 319 320 320 317 314 312 309 308 306 304 302 300
188 179 183 191 194 193 197 207 219 235 249 267 277 283 285 287 289 292 295 297 299 302 304 307 309 310 313 315 314 314 317 319 319 319 317 315 312 310 307 305 303 302 300 299
239 237 234 226 223 230 240 250 256 266 271 275 280 284 287 289 292 294 295 296 299 302 307 308 310 312 312 311 313 314 317 319 317 316 315 313 311 309 307 305 303 302 301 300
260 257 256 255 257 251 255 265 270 273 274 276 279 283 287 291 293 294 297 300 303 305 307 307 309 310 311 311 312 313 316 316 315 313 313 313 311 308 307 306 306 306 305 305
260 261 263 265 265 261 262 269 272 275 277 280 284 287 291 294 295 296 298 301 303 304 306 308 308 309 308 308 310 312 314 313 311 311 312 313 311 311 311 310 309 309 308 306
270 272 275 275 274 272 270 270 274 276 279 282 284 287 290 293 294 296 299 301 302 303 305 306 306 306 307 308 309 312 313 310 310 311 312 311 312 314 312 313 312 309 307 304
270 273 278 278 277 276 275 274 274 276 279 282 285 288 290 292 294 297 299 300 300 301 302 303 304 306 308 308 308 310 309 310 312 311 312 313 312 312 314 313 312 310 310 309
274 272 271 271 273 274 274 274 274 276 278 282 285 287 290 292 295 296 297 296 297 298 301 302 305 306 308 308 308 309 311 314 312 312 314 314 314 313 314 314 315 315 316 316
271 274 276 276 276 277 277 274 273 276 280 283 286 289 291 292 294 295 295 296 298 298 300 303 306 308 308 308 308 311 313 312 313 314 316 315 315 317 316 318 319 323 327 329
269 272 275 277 280 281 280 278 279 280 283 286 288 289 292 295 295 294 294 294 295 297 301 306 306 306 306 308 311 312 313 312 312 315 316 317 317 317 319 322 325 330 334 339
275 275 275 276 276 276 277 279 279 282 286 287 287 290 293 292 291 291 293 295 298 301 303 304 304 305 307 312 314 314 313 312 313 315 317 318 317 319 321 323 326 329 334 339
276 276 275 273 276 277 278 281 284 285 286 286 288 292 293 292 292 293 294 296 298 301 302 301 303 305 310 315 317 317 315 314 314 318 318 316 318 319 322 324 327 331 334 336
277 276 275 276 277 280 283 283 285 286 286 288 291 292 292 292 292 293 295 298 301 301 301 304 306 309 312 317 321 320 316 316 318 318 315 317 318 319 322 323 327 330 332 335
276 277 277 277 280 283 284 285 287 288 290 292 292 292 293 293 293 294 298 299 299 300 304 306 309 308 315 317 321 319 316 318 317 315 316 316 317 319 321 323 327 329 330 334
276 278 280 281 284 286 288 290 292 292 293 293 294 295 293 293 295 296 298 298 300 300 305 307 305 304 311 315 318 317 317 317 314 315 315 315 314 318 321 323 327 330 330 333
275 277 279 279 281 285 288 290 291 292 294 294 293 292 291 292 294 296 299 300 301 302 304 305 305 307 310 314 316 316 315 313 315 316 313 311 311 317 321 324 327 328 331 332
275 278 280 283 285 286 288 289 290 289 289 288 288 289 292 293 294 295 297 300 302 303 307 310 312 312 313 314 314 313 312 314 316 314 312 308 312 318 322 324 325 326 329 331
276 278 280 282 283 284 284 284 286 287 288 289 289 290 292 292 292 295 300 302 299 304 306 309 310 308 311 313 311 311 313 315 315 313 310 310 315 321 323 324 324 327 328 328
279 281 281 282 282 282 283 286 289 289 291 291 292 290 288 287 292 294 301 301 301 304 304 307 309 311 311 309 311 313 313 314 311 311 307 313 319 322 324 324 325 329 332 335
282 284 285 285 285 286 287 290 293 292 292 290 288 285 284 284 290 296 298 297 298 302 304 307 308 309 309 311 312 313 312 311 312 307 309 317 320 323 324 325 329 333 336 334
284 285 286 285 283 284 284 285 288 288 287 284 285 285 286 287 290 292 295 297 299 302 303 304 306 308 310 311 312 311 311 311 310 304 313 319 321 323 324 328 333 335 334 337
283 283 281 279 279 280 281 283 284 284 284 283 282 284 285 287 291 294 296 297 300 300 300 303 307 309 310 311 311 310 310 309 302 306 316 319 318 322 329 333 336 334 332 326
Height
5672 5674 5678 5680 5684 5687 5691 5695 5699 5704 5709 5715 5721 5725 5729 5732 5734 5737 5739 5740 5740 5739 5737 5735 5732 5729 5725 5720 5715 5708 5701 5694 5687 5679 5670 5658 5647 5639 5630 5621 5614 5606 5599 5592
5679 5681 5683 5685 5688 5691 5694 5698 5701 5706 5710 5714 5718 5722 5726 5729 5732 5734 5734 5734 5733 5732 5730 5727 5723 5719 5714 5708 5702 5695 5688 5681 5673 5662 5649 5641 5633 5623 5614 5607 5600 5592 5585 5578
5682 5684 5686 5689 5692 5694 5698 5701 5705 5708 5711 5715 5718 5721 5723 5726 5728 5728 5728 5727 5726 5724 5722 5718 5714 5709 5703 5696 5689 5683 5675 5664 5652 5643 5636 5627 5617 5608 5600 5593 5585 5578 5571 5565
5686 5687 5689 5692 5694 5697 5700 5703 5706 5709 5711 5714 5716 5718 5720 5722 5722 5722 5721 5720 5718 5715 5711 5707 5702 5696 5690 5683 5675 5665 5656 5646 5636 5629 5620 5611 5602 5594 5586 5580 5573 5567 5560 5554
5690 5691 5693 5694 5696 5699 5701 5704 5706 5708 5710 5712 5713 5715 5717 5717 5717 5715 5713 5711 5708 5704 5699 5694 5689 5683 5676 5667 5658 5648 5638 5629 5621 5612 5604 5597 5589 5582 5573 5568 5562 5555 5548 5542
5693 5694 5695 5696 5697 5699 5701 5704 5705 5707 5708 5710 5711 5712 5712 5710 5708 5706 5704 5701 5697 5692 5688 5682 5676 5670 5661 5652 5641 5632 5624 5615 5606 5598 5591 5584 5577 5569 5562 5556 5550 5543 5536 5527
5695 5695 5697 5698 5698 5699 5701 5705 5702 5703 5704 5705 5705 5704 5703 5701 5699 5696 5693 5690 5685 5681 5676 5670 5663 5655 5645 5636 5628 5618 5609 5600 5593 5586 5579 5572 5564 5556 5548 5541 5535 5527 5520 5513
5694 5695 5696 5696 5697 5698 5699 5698 5699 5699 5698 5697 5696 5695 5693 5691 5689 5686 5683 5679 5675 5669 5662 5654 5647 5640 5632 5623 5613 5604 5596 5588 5581 5573 5566 5557 5550 5541 5533 5524 5518 5510 5502 5495
5693 5693 5693 5694 5694 5694 5694 5694 5694 5693 5692 5691 5689 5687 5685 5682 5679 5675 5670 5665 5660 5654 5647 5641 5633 5626 5617 5608 5599 5591 5583 5576 5568 5561 5552 5543 5535 5527 5518 5508 5498 5490 5480 5472
5689 5689 5689 5690 5690 5689 5689 5688 5686 5685 5684 5682 5680 5677 5674 5671 5667 5663 5658 5652 5647 5641 5634 5627 5619 5611 5603 5595 5587 5579 5572 5564 5556 5548 5539 5528 5519 5509 5500 5489 5478 5467 5456 5445
5682 5680 5683 5682 5681 5681 5680 5679 5677 5675 5674 5672 5669 5667 5663 5659 5655 5650 5645 5640 5634 5627 5620 5613 5605 5598 5590 5582 5574 5567 5559 5550 5542 5533 5523 5515 5505 5494 5483 5470 5456 5444 5431 5416
5673 5672 5673 5673 5671 5670 5670 5668 5666 5664 5662 5660 5658 5655 5651 5647 5642 5638 5632 5626 5620 5614 5607 5598 5590 5583 5575 5568 5560 5553 5545 5535 5526 5517 5508 5499 5490 5482 5467 5452 5436 5419 5400 5382
5660 5661 5662 5662 5661 5660 5658 5655 5654 5652 5650 5648 5645 5642 5638 5634 5630 5625 5619 5613 5607 5599 5591 5583 5575 5568 5561 5553 5546 5537 5529 5520 5511 5501 5492 5483 5473 5461 5452 5441 5418 5399 5380 5362
5649 5648 5649 5648 5649 5649 5647 5645 5643 5641 5639 5636 5633 5630 5626 5622 5617 5611 5605 5598 5591 5584 5576 5568 5560 5554 5547 5539 5530 5521 5512 5503 5495 5486 5476 5466 5455 5442 5428 5414 5402 5390 5370 5345
5639 5639 5638 5637 5636 5636 5635 5633 5631 5629 5627 5624 5620 5616 5612 5606 5601 5595 5589 5582 5575 5568 5561 5555 5547 5540 5533 5525 5516 5507 5498 5490 5481 5471 5461 5450 5438 5425 5411 5400 5387 5373 5359 5344
5627 5627 5627 5626 5625 5624 5623 5621 5619 5617 5614 5611 5607 5602 5598 5593 5587 5580 5574 5567 5560 5554 5548 5541 5534 5527 5519 5511 5502 5492 5484 5475 5466 5457 5446 5435 5422 5410 5399 5389 5378 5366 5352 5339
5616 5615 5615 5614 5613 5612 5610 5609 5606 5603 5600 5596 5592 5588 5583 5577 5571 5565 5559 5552 5546 5540 5535 5527 5520 5512 5505 5497 5489 5480 5470 5461 5452 5442 5432 5420 5408 5398 5390 5380 5370 5359 5347 5336
5602 5602 5602 5601 5600 5599 5597 5594 5591 5588 5584 5580 5576 5571 5565 5560 5555 5548 5543 5537 5532 5525 5519 5513 5507 5499 5491 5484 5475 5466 5456 5448 5439 5428 5417 5407 5397 5389 5381 5372 5362 5352 5343 5333
5590 5589 5588 5588 5586 5584 5581 5578 5575 5572 5569 5565 5560 5555 5550 5545 5538 5532 5527 5523 5518 5511 5504 5498 5492 5485 5477 5469 5461 5452 5443 5434 5425 5414 5404 5395 5387 5380 5373 5364 5356 5347 5338 5329
5576 5575 5573 5572 5570 5567 5565 5562 5559 5556 5552 5548 5544 5539 5534 5528 5523 5518 5514 5508 5503 5498 5491 5484 5478 5471 5464 5456 5447 5438 5429 5420 5411 5401 5392 5385 5378 5373 5365 5357 5349 5341 5333 5325
5562 5561 5560 5558 5556 5553 5550 5546 5543 5539 5536 5532 5527 5522 5517 5513 5509 5505 5499 5494 5487 5483 5476 5470 5464 5458 5450 5443 5433 5424 5416 5407 5398 5389 5381 5375 5370 5365 5358 5350 5343 5336 5329 5322
5549 5547 5545 5543 5541 5538 5535 5532 5528 5525 5521 5516 5512 5507 5503 5498 5494 5489 5485 5481 5473 5468 5461 5455 5450 5443 5436 5429 5420 5411 5402 5394 5385 5377 5372 5367 5363 5358 5351 5344 5337 5331 5324 5318
5534 5532 5530 5528 5525 5523 5520 5516 5513 5509 5505 5500 5497 5493 5488 5483 5479 5476 5470 5466 5461 5454 5448 5442 5436 5429 5422 5415 5407 5398 5389 5381 5374 5368 5363 5360 5356 5350 5343 5338 5332 5325 5320 5315
5517 5515 5513 5511 5509 5507 5504 5500 5497 5492 5488 5485 5481 5478 5474 5470 5465 5462 5457 5450 5445 5440 5434 5428 5422 5414 5408 5401 5393 5385 5378 5372 5365 5360 5356 5353 5348 5342 5337 5332 5326 5320 5316 5312
5500 5499 5496 5494 5492 5489 5486 5483 5479 5476 5473 5469 5465 5461 5459 5455 5451 5445 5441 5436 5431 5426 5420 5414 5408 5401 5394 5387 5380 5373 5367 5362 5357 5353 5351 5347 5341 5336 5331 5327 5321 5317 5313 5310
5482 5480 5478 5476 5474 5472 5469 5466 5463 5459 5457 5453 5448 5446 5443 5439 5435 5430 5425 5422 5416 5411 5407 5401 5395 5388 5382 5376 5369 5363 5358 5353 5349 5347 5344 5340 5335 5331 5327 5323 5318 5314 5311 5309
5464 5463 5461 5459 5456 5454 5450 5447 5445 5441 5439 5437 5433 5428 5427 5423 5420 5416 5412 5407 5403 5399 5394 5388 5382 5376 5370 5364 5359 5354 5349 5345 5343 5341 5338 5334 5330 5327 5324 5319 5315 5312 5310 5309